Hourly Data Report for October 05, 2014

All times are specified in Local Standard Time (LST). Add 1 hour to adjust for Daylight Saving Time where and when it is observed.

ARVIAT A
NUNAVUT

61°05'38.000" N
94°04'18.000" W
10.40 m
2300427
71174
YEK

Download Data

Hourly Data (October 2014)
Hourly Data Report for October 5, 2014
Temp Definition
°C
Dew Point Temp Definition
°C
Rel Hum Definition
%
Wind Dir Definition
10's deg

Wind Spd Definition
km/h
Visibility Definition
km
Stn Press Definition
kPa
Hmdx Definition


Wind Chill Definition


Weather Definition


TIME
00:00 Legend Double Dagger -1.9 -2.6 95 36 50 1.6 100.20   -11 Snow
01:00 Legend Double Dagger -1.9 -2.2 98 1 50 1.0 100.17   -11 Snow
02:00 Legend Double Dagger -1.8 -2.1 98 1 50 1.0 100.09   -11 Snow
03:00 Legend Double Dagger -1.4 -1.8 97 1 54 1.6 100.00   -10 Snow
04:00 Legend Double Dagger -0.5 -1.0 97 1 45 4.8 99.94   -8 Snow
05:00 Legend Double Dagger -0.1 -0.5 97 1 46 2.4 99.92   -8 Freezing Rain,Snow
06:00 Legend Double Dagger 0.0 -0.3 98 1 43 2.8 99.95   -8 Freezing Rain,Fog
07:00 Legend Double Dagger 0.2 -0.1 98 1 41 2.0 99.90     Rain,Fog
08:00 Legend Double Dagger -0.1 -0.2 99 1 41 1.6 99.91   -8 Freezing Rain,Fog
09:00 Legend Double Dagger 0.0 -0.1 99 1 41 1.6 99.86   -7 Freezing Rain,Fog
10:00 Legend Double Dagger 0.1 0.0 99 1 39 2.0 99.82     Freezing Rain,Fog
11:00 Legend Double Dagger 0.4 0.3 99 1 41 4.8 99.71     Rain,Fog
12:00 Legend Double Dagger 0.7 0.4 98 1 41 4.8 99.61     Moderate Rain,Fog
13:00 Legend Double Dagger 0.7 0.4 98 1 43 4.8 99.56     Rain,Fog
14:00 Legend Double Dagger 1.0 0.6 97 1 43 4.8 99.48     Rain,Fog
15:00 Legend Double Dagger 1.2 0.9 98 1 37 3.2 99.42     Rain,Fog
16:00 Legend Double Dagger 1.5 1.1 97 2 45 3.6 99.35     Rain,Snow
17:00 Legend Double Dagger 1.2 0.9 98 2 39 6.4 99.27     Moderate Rain,Fog
18:00 Legend Double Dagger 1.3 0.9 97 2 41 2.8 99.21     Moderate Rain,Fog
19:00 Legend Double Dagger 1.3 1.0 98 2 39 2.8 99.20     Snow
20:00 Legend Double Dagger 1.8 1.4 97 2 46 4.8 99.13     Rain,Fog
21:00 Legend Double Dagger 2.1 1.8 98 3 45 4.0 99.08     Moderate Rain,Fog
22:00 Legend Double Dagger 2.3 2.2 99 3 37 2.4 99.10     Rain,Fog
23:00 Legend Double Dagger 2.4 2.3 99 3 34 4.8 99.09     Fog

Notes on Data Quality.

Legend

  • E = Estimated
  • M = Missing
  • NA = Not Available
  • ‡ = Partner data that is not subject to review by the National Climate Archives
Date modified: